Location: Caltech
(34.1382°N, 118.1253°W)
Time: 14:22:23
(UTC-07:00)

OPAL - Visible Passes

Search period start: 29 April 2017 00:00
Search period end: 09 May 2017 00:00
Orbit: 743 x 796 km, 100.2° (Epoch: 28 April)

Date Brightness Start Highest point End Pass type
(mag) Time Alt. Az. Time Alt. Az. Time Alt. Az.
01 May 10.1 05:21:04 10° NE 05:24:42 20° E 05:28:22 10° SE visible
04 May 10.3 05:14:06 10° ENE 05:17:07 16° E 05:20:08 10° SE visible
07 May 10.5 05:07:28 10° ENE 05:09:31 12° E 05:11:33 10° ESE visible
